[[{"header":{"parameterUnit":"m.s-1","parameterCategory":1,"la1":30.2991,"la2":30.254,"lo1":-89.0895,"lo2":-89.0444,"dy":0.0017,"dx":0.0017,"nx":28,"ny":28,"refTime":"2025-02-06T09:00:00:Z","depth":0,"parameterNumber":2,"parameterNumberName":"U-component_of_WINDS"},"data":[0,0,0,0,0,0,0,0,0,0,0,0,0,0,0,0,0,0,0,0,0,0,0,0,0,0,0,0,0,0,0,0,0,0,0,0,0,0,0,0,0,0,0,0,0,0,0,0,0,0,0,0,0,0,0,0,0,0,-0.4563,-0.4562,0,-0.4488,-0.4487,-0.4486,-0.4415,-0.4414,-0.4413,-0.4412,-0.4335,-0.4334,-0.4333,0,0,0,0,0,0,0,0,0,0,0,0,0,-0.4643,-0.4642,-0.4563,-0.4562,-0.4561,-0.4488,-0.4487,-0.4486,-0.4415,-0.4414,-0.4413,-0.4412,-0.4335,-0.4334,-0.4333,0,0,0,0,0,0,0,0,0,0,0,0,0,-0.4593,-0.4642,-0.4563,-0.4517,-0.4512,-0.4488,-0.4487,-0.4486,-0.4415,-0.4414,-0.4412,-0.4411,-0.4336,-0.4334,-0.4332,-0.4349,0,0,-0.4327,-0.4326,0,0,0,0,0,0,0,0,-0.4596,-0.459,-0.4524,-0.452,-0.4514,-0.4459,-0.4487,-0.444,-0.4415,-0.4452,-0.4412,-0.441,-0.4377,-0.4372,-0.4361,-0.4345,-0.4342,-0.4327,-0.4326,-0.4325,-0.4324,0,0,0,0,0,0,0,-0.4599,-0.4592,-0.4533,-0.4524,-0.4517,-0.4499,-0.4491,-0.4478,-0.4423,-0.4449,-0.4443,-0.4435,-0.4374,-0.4363,-0.4359,-0.4341,-0.4327,-0.4325,-0.4324,-0.4323,-0.4334,-0.4335,0,0,0,0,0,0,-0.461,-0.4596,-0.4536,-0.4531,-0.4552,-0.4499,-0.4489,-0.4478,-0.4423,-0.4413,-0.4437,-0.4432,-0.4367,-0.4361,-0.4356,-0.4371,-0.4325,-0.4323,-0.4322,-0.4333,-0.4334,-0.4336,0,0,0,0,0,0,-0.4612,-0.4605,-0.4539,-0.4562,-0.4552,-0.4499,-0.4487,-0.4478,-0.4466,-0.4414,-0.4404,-0.4435,-0.4365,-0.4358,-0.4351,-0.4367,-0.4322,-0.4321,-0.4331,-0.4333,-0.4335,-0.4402,0,0,0,0,0,0,-0.4614,-0.4606,-0.4612,-0.4563,-0.4551,-0.4535,-0.4488,-0.4477,-0.4463,-0.4457,-0.441,-0.4401,-0.4364,-0.4354,-0.4349,-0.4364,-0.4319,-0.4329,-0.4332,-0.4334,-0.4398,-0.4406,-0.4413,0,0,0,0,0,-0.4618,-0.4634,-0.4613,-0.4606,-0.4557,-0.4537,-0.453,-0.4487,-0.4465,-0.447,-0.4437,-0.4402,-0.4367,-0.4354,-0.4348,-0.4363,-0.4328,-0.4331,-0.4334,-0.4395,-0.4405,-0.4413,0,0,0,0,0,0,-0.4686,-0.4626,-0.4602,-0.4603,-0.4576,-0.4524,-0.453,-0.4499,-0.4477,-0.4472,-0.4419,-0.4409,-0.4408,-0.4384,-0.4371,-0.4375,-0.4343,-0.4345,-0.4391,-0.44,-0.4407,-0.4412,-0.4318,0,0,0,0,0,-0.4702,-0.469,-0.4638,-0.4644,-0.4631,-0.4583,-0.4573,-0.4542,-0.4511,-0.4499,-0.4465,-0.4436,-0.4418,-0.4408,-0.4388,-0.4395,-0.4383,-0.4402,-0.4409,-0.4415,-0.4418,-0.4419,-0.4427,-0.4346,-0.4346,-0.4346,0,0,-0.4733,-0.4699,-0.4695,-0.4657,-0.4632,-0.4621,-0.4574,-0.4564,-0.4555,-0.4497,-0.4488,-0.4463,-0.4427,-0.4427,-0.4425,-0.4407,-0.4438,-0.4419,-0.4425,-0.4423,-0.4423,-0.4431,-0.4438,-0.4348,-0.4348,-0.4347,0,0,-0.4784,-0.4758,-0.4759,-0.4735,-0.4698,-0.4666,-0.4667,-0.462,-0.4601,-0.4591,-0.4548,-0.4536,-0.4507,-0.4483,-0.4467,-0.451,-0.4478,-0.4505,-0.4544,-0.4546,-0.4552,-0.4558,-0.4573,-0.4579,-0.4508,-0.4508,-0.4508,0,-0.4828,-0.481,-0.4764,-0.4757,-0.4742,-0.4689,-0.469,-0.4669,-0.4628,-0.4618,-0.4599,-0.4561,-0.4533,-0.4526,-0.4537,-0.4526,-0.4525,-0.451,-0.4555,-0.456,-0.4564,-0.4578,-0.4584,-0.4512,-0.4511,-0.4511,-0.4511,0,-0.4865,-0.4853,-0.4859,-0.482,-0.4806,-0.4803,-0.4757,-0.4747,-0.4718,-0.4688,-0.4679,-0.4644,-0.4617,-0.4613,-0.4584,-0.4602,-0.4592,-0.4565,-0.4531,-0.4577,-0.4589,-0.4594,-0.4517,-0.4516,-0.4514,-0.4514,0,0,-0.4958,-0.4894,-0.4897,-0.4879,-0.4834,-0.4824,-0.4819,-0.4792,-0.4785,-0.4758,-0.4752,-0.4729,-0.4703,-0.4685,-0.4654,-0.4655,-0.4691,-0.4627,-0.4626,-0.464,-0.4709,-0.4729,-0.4736,-0.467,-0.4671,-0.4671,-0.4711,0,-0.5001,-0.4989,-0.4948,-0.4948,-0.4936,-0.4886,-0.4882,-0.4854,-0.4826,-0.4812,-0.478,-0.4764,-0.4732,-0.4721,-0.472,-0.4687,-0.4704,-0.4684,-0.4664,-0.4663,-0.4674,-0.4742,-0.4764,-0.4804,-0.4716,-0.4717,-0.4717,0,-0.5051,-0.5027,-0.5026,-0.4982,-0.4975,-0.4972,-0.4945,-0.4932,-0.4899,-0.4878,-0.4859,-0.4824,-0.4815,-0.4784,-0.4771,-0.4758,-0.4748,-0.473,-0.4731,-0.4727,-0.4693,-0.474,-0.4815,-0.4822,-0.4724,-0.4724,-0.4723,0,-0.5118,-0.5086,-0.5082,-0.5068,-0.5016,-0.5015,-0.4993,-0.4959,-0.4946,-0.4921,-0.4912,-0.4888,-0.4874,-0.4856,-0.4815,-0.4796,-0.4807,-0.4772,-0.4789,-0.479,-0.4793,-0.4794,-0.4868,-0.4787,-0.4787,-0.4787,-0.4787,0,-0.5171,-0.5172,-0.5111,-0.5108,-0.5108,-0.5061,-0.5062,-0.5036,-0.5006,-0.4997,-0.4952,-0.4944,-0.4891,-0.4877,-0.4845,-0.4839,-0.4834,-0.4817,-0.4808,-0.482,-0.4823,-0.4812,-0.4809,-0.4789,-0.4788,-0.4788,-0.4788,0,-0.5246,-0.5205,-0.5197,-0.5148,-0.5136,-0.5139,-0.5097,-0.5092,-0.5062,-0.5051,-0.5045,-0.4997,-0.4979,-0.4936,-0.4906,-0.4884,-0.4887,-0.4871,-0.4898,-0.4893,-0.4912,-0.4911,-0.4982,-0.4989,-0.4905,-0.4906,-0.4906,0,-0.5283,-0.5282,-0.5234,-0.5225,-0.5205,-0.5191,-0.5177,-0.5131,-0.5118,-0.5081,-0.5081,-0.5059,-0.5039,-0.5011,-0.4974,-0.495,-0.4934,-0.496,-0.493,-0.4942,-0.4934,-0.4934,-0.4934,-0.4967,-0.4968,-0.4969,-0.497,0,-0.5352,-0.5331,-0.5313,-0.5288,-0.5273,-0.5251,-0.5227,-0.5222,-0.5169,-0.5158,-0.5138,-0.5123,-0.5092,-0.5071,-0.5042,-0.5019,-0.4986,-0.498,-0.4982,-0.4995,-0.501,-0.5002,-0.4916,-0.4978,-0.4977,-0.4977,-0.4976,-0.4976,-0.5408,-0.5406,-0.5371,-0.5353,-0.533,-0.5308,-0.5301,-0.527,-0.5253,-0.5224,-0.5198,-0.5181,-0.5148,-0.5106,-0.5085,-0.5071,-0.5054,-0.5058,-0.5059,-0.5061,-0.5066,-0.5013,-0.5066,-0.5066,-0.5065,-0.5065,-0.5065,0,-0.5475,-0.545,-0.5434,-0.5401,-0.5386,-0.5356,-0.5328,-0.5318,-0.5303,-0.5276,-0.5257,-0.5235,-0.5214,-0.5174,-0.515,-0.5146,-0.513,-0.5141,-0.5141,-0.5136,-0.5083,-0.5083,-0.5155,-0.5155,-0.5155,-0.5155,-0.5155,-0.5155,-0.5508,-0.5502,-0.5478,-0.546,-0.5435,-0.5418,-0.5405,-0.5384,-0.5362,-0.5339,-0.5321,-0.5296,-0.5263,-0.5236,-0.5216,-0.5204,-0.5197,-0.5214,-0.5198,-0.5149,-0.514,-0.5132,-0.5132,-0.5213,-0.5213,-0.5252,-0.5252,-0.5253]},{"header":{"parameterUnit":"m.s-1","parameterCategory":1,"la1":30.2991,"la2":30.254,"lo1":-89.0895,"lo2":-89.0444,"dy":0.0017,"dx":0.0017,"nx":28,"ny":28,"refTime":"2025-02-06T09:00:00:Z","depth":0,"parameterNumber":3,"parameterNumberName":"V-component_of_WINDS"},"data":[0,0,0,0,0,0,0,0,0,0,0,0,0,0,0,0,0,0,0,0,0,0,0,0,0,0,0,0,0,0,0,0,0,0,0,0,0,0,0,0,0,0,0,0,0,0,0,0,0,0,0,0,0,0,0,0,0,0,1.9481,1.9481,0,1.9468,1.9468,1.9468,1.9473,1.9473,1.9474,1.9474,1.9458,1.9457,1.9457,0,0,0,0,0,0,0,0,0,0,0,0,0,1.9507,1.9506,1.9481,1.9481,1.948,1.9468,1.9468,1.9468,1.9473,1.9473,1.9474,1.9474,1.9458,1.9457,1.9457,0,0,0,0,0,0,0,0,0,0,0,0,0,1.9495,1.9506,1.9481,1.9482,1.9482,1.9468,1.9468,1.9468,1.9473,1.9473,1.9474,1.9474,1.9459,1.9458,1.9456,1.9441,0,0,1.9453,1.9453,0,0,0,0,0,0,0,0,1.9495,1.9494,1.9482,1.9482,1.9481,1.9473,1.9471,1.9459,1.9473,1.9476,1.9474,1.9474,1.9462,1.9461,1.9458,1.944,1.9439,1.9453,1.9452,1.9452,1.9452,0,0,0,0,0,0,0,1.9496,1.9494,1.9476,1.9481,1.9481,1.9482,1.9481,1.9469,1.9467,1.9476,1.9476,1.9475,1.9462,1.9459,1.9457,1.9439,1.9453,1.9452,1.9452,1.9451,1.9408,1.9407,0,0,0,0,0,0,1.9498,1.9495,1.9476,1.9475,1.949,1.9481,1.948,1.9475,1.9467,1.9466,1.9474,1.9475,1.946,1.9458,1.9457,1.9438,1.9452,1.9451,1.945,1.9408,1.9408,1.9407,0,0,0,0,0,0,1.9498,1.9496,1.9477,1.9485,1.9483,1.948,1.9475,1.9475,1.9471,1.9466,1.9465,1.9471,1.946,1.9458,1.9445,1.9437,1.9451,1.945,1.9409,1.9408,1.9407,1.94,0,0,0,0,0,0,1.9499,1.9496,1.9491,1.9485,1.9482,1.9466,1.9474,1.9474,1.9469,1.947,1.9463,1.9462,1.9461,1.9446,1.9444,1.9436,1.9449,1.9409,1.9408,1.9408,1.9401,1.9399,1.9398,0,0,0,0,0,1.95,1.9488,1.949,1.9488,1.9476,1.9465,1.9464,1.9464,1.9469,1.9463,1.946,1.9462,1.9439,1.9445,1.9442,1.9434,1.941,1.9409,1.9408,1.9402,1.94,1.9398,0,0,0,0,0,0,1.9492,1.9488,1.949,1.9477,1.9471,1.9466,1.9459,1.9461,1.9454,1.9455,1.9454,1.9452,1.9438,1.9435,1.9442,1.9418,1.9425,1.9423,1.9421,1.9419,1.9418,1.9419,1.9448,0,0,0,0,0,1.9489,1.9482,1.9478,1.9467,1.9464,1.9462,1.9457,1.9458,1.9452,1.945,1.9445,1.9439,1.943,1.9424,1.9416,1.94,1.9399,1.9393,1.9392,1.939,1.9389,1.938,1.9378,1.9403,1.9403,1.9403,0,0,1.9482,1.9479,1.9474,1.9465,1.9461,1.9453,1.946,1.9451,1.9445,1.9448,1.9436,1.9432,1.9425,1.941,1.9404,1.9407,1.9381,1.9389,1.9388,1.9387,1.9379,1.9377,1.9374,1.9402,1.9403,1.9403,0,0,1.9466,1.9463,1.9453,1.9449,1.9444,1.9442,1.944,1.9435,1.9433,1.9421,1.9423,1.9415,1.94,1.9395,1.939,1.9372,1.9374,1.9369,1.936,1.9352,1.935,1.9348,1.9342,1.934,1.9367,1.9367,1.9367,0,1.9458,1.9447,1.9448,1.9439,1.9435,1.9438,1.9428,1.9424,1.9415,1.9412,1.9415,1.9397,1.9392,1.9377,1.9372,1.9368,1.9365,1.937,1.935,1.9349,1.9347,1.9341,1.9339,1.9367,1.9367,1.9367,1.9367,0,1.9438,1.943,1.9423,1.9416,1.941,1.9401,1.9399,1.9394,1.9394,1.9393,1.938,1.9374,1.9365,1.9361,1.9361,1.9346,1.9348,1.9351,1.9358,1.9344,1.9339,1.9336,1.9366,1.9366,1.9366,1.9367,0,0,1.9417,1.941,1.9408,1.9405,1.9399,1.9392,1.9382,1.9374,1.937,1.9363,1.9355,1.9342,1.9345,1.934,1.934,1.9332,1.9319,1.9336,1.9336,1.9334,1.9301,1.9299,1.9297,1.932,1.9319,1.9319,1.9302,0,1.94,1.9385,1.9385,1.937,1.9363,1.9366,1.9357,1.9352,1.935,1.9343,1.934,1.9331,1.9336,1.9332,1.9325,1.9322,1.9312,1.9323,1.9311,1.9311,1.9314,1.9294,1.9292,1.9276,1.93,1.9299,1.9299,0,1.9379,1.9374,1.9359,1.9354,1.9351,1.9344,1.9336,1.9329,1.9323,1.9322,1.9317,1.9317,1.9306,1.9313,1.9298,1.9306,1.9301,1.9298,1.9298,1.9297,1.9305,1.9293,1.9271,1.9269,1.9296,1.9296,1.9296,0,1.9366,1.9355,1.9344,1.9341,1.9335,1.933,1.9327,1.9322,1.9317,1.931,1.9307,1.9299,1.9294,1.9287,1.9285,1.929,1.927,1.9277,1.9269,1.9269,1.9265,1.9265,1.9243,1.9261,1.9261,1.9261,1.9261,0,1.9348,1.9339,1.9338,1.9332,1.9321,1.9321,1.9311,1.9308,1.9303,1.9296,1.9297,1.929,1.9287,1.9279,1.9277,1.9266,1.9263,1.9262,1.9261,1.9262,1.9262,1.9259,1.926,1.926,1.926,1.9261,1.9261,0,1.9332,1.9331,1.932,1.9316,1.9314,1.9307,1.9303,1.9296,1.9294,1.9285,1.9282,1.9279,1.927,1.9267,1.9255,1.9254,1.924,1.9241,1.9243,1.9243,1.9235,1.9236,1.921,1.9207,1.9227,1.9227,1.9227,0,1.9321,1.9314,1.9309,1.9305,1.9302,1.9295,1.929,1.929,1.9285,1.9278,1.9272,1.9263,1.9256,1.9241,1.9237,1.9228,1.9228,1.922,1.9227,1.9228,1.9229,1.9229,1.9229,1.9219,1.9218,1.9218,1.9218,0,1.9302,1.9302,1.9296,1.9289,1.9284,1.9279,1.9274,1.927,1.9268,1.9262,1.9254,1.9248,1.9237,1.9228,1.9219,1.9215,1.9216,1.9216,1.9214,1.9214,1.9216,1.9216,1.924,1.9217,1.9217,1.9217,1.9217,1.9217,1.9288,1.9282,1.9278,1.9271,1.9268,1.9263,1.9257,1.9254,1.9247,1.9239,1.9239,1.9229,1.9223,1.9211,1.9207,1.9199,1.9201,1.9198,1.9197,1.9196,1.9196,1.9217,1.9197,1.9197,1.9197,1.9197,1.9197,0,1.9269,1.9267,1.9261,1.9254,1.9248,1.9251,1.9245,1.924,1.9232,1.9227,1.922,1.921,1.9201,1.9197,1.9188,1.9182,1.9182,1.918,1.9181,1.918,1.9194,1.9197,1.918,1.918,1.918,1.918,1.918,1.918,1.9259,1.9249,1.9249,1.9237,1.9234,1.9226,1.9223,1.9218,1.9214,1.9203,1.9196,1.9194,1.9188,1.9179,1.9171,1.917,1.9167,1.9164,1.9163,1.9177,1.9179,1.918,1.9183,1.9163,1.9163,1.915,1.9149,1.9149]}]]